| time (UTC) | temp F | wind direction | speed MPH | gust MPH | rain 1hr in | rain 24hr in | rain mn in | humidity % | barometer mb |
| 20260902004541 | 87 | 190 | 0.0 | 0.0 | 0.00 | 0.00 | 0.00 | 74 | 1013.4 |
| 20260902003040 | 88 | 190 | 0.0 | 0.0 | 0.00 | 0.00 | 0.00 | 71 | 1013.4 |
| 20260902001539 | 89 | 190 | 0.0 | 0.0 | 0.00 | 0.00 | 0.00 | 69 | 1013.4 |
| 20260902000039 | 90 | 190 | 0.0 | 1.0 | 0.00 | 0.00 | 0.00 | 65 | 1013.3 |
| 20260901234538 | 92 | 190 | 0.0 | 4.0 | 0.00 | 0.00 | 0.00 | 62 | 1013.5 |
| 20260901233038 | 92 | 181 | 3.0 | 6.0 | 0.00 | 0.00 | 0.00 | 60 | 1013.4 |
| 20260901231637 | 94 | 207 | 2.0 | 6.0 | 0.00 | 0.00 | 0.00 | 58 | 1013.5 |
| 20260901230037 | 94 | 227 | 4.0 | 8.0 | 0.00 | 0.00 | 0.00 | 57 | 1013.5 |
| 20260901224537 | 95 | 213 | 3.0 | 7.0 | 0.00 | 0.00 | 0.00 | 52 | 1013.6 |
| 20260901223043 | 95 | 212 | 6.0 | 9.0 | 0.00 | 0.00 | 0.00 | 51 | 1013.6 |
| 20260901221536 | 95 | 208 | 3.0 | 7.0 | 0.00 | 0.00 | 0.00 | 53 | 1013.6 |
| 20260901220038 | 95 | 182 | 5.0 | 11.0 | 0.00 | 0.00 | 0.00 | 52 | 1013.5 |
| 20260901214536 | 95 | 210 | 5.0 | 8.0 | 0.00 | 0.00 | 0.00 | 53 | 1013.3 |
| 20260901213058 | 95 | 196 | 5.0 | 10.0 | 0.00 | 0.00 | 0.00 | 53 | 1013.2 |
| 20260901211533 | 96 | 214 | 4.0 | 9.0 | 0.00 | 0.00 | 0.00 | 53 | 1013.4 |
| 20260901210032 | 96 | 200 | 5.0 | 10.0 | 0.00 | 0.00 | 0.00 | 53 | 1013.4 |
| 20260901204533 | 97 | 213 | 3.0 | 10.0 | 0.00 | 0.00 | 0.00 | 54 | 1013.4 |
| 20260901203030 | 98 | 224 | 3.0 | 6.0 | 0.00 | 0.00 | 0.00 | 50 | 1013.5 |
| 20260901201529 | 97 | 201 | 3.0 | 9.0 | 0.00 | 0.00 | 0.00 | 54 | 1013.5 |
| 20260901200027 | 97 | 215 | 3.0 | 7.0 | 0.00 | 0.00 | 0.00 | 52 | 1013.6 |
| 20260901194524 | 98 | 301 | 0.0 | 10.0 | 0.00 | 0.00 | 0.00 | 48 | 1013.8 |
| 20260901193025 | 97 | 248 | 2.0 | 7.0 | 0.00 | 0.00 | 0.00 | 51 | 1013.9 |
| 20260901191523 | 97 | 195 | 3.0 | 7.0 | 0.00 | 0.00 | 0.00 | 50 | 1014.1 |
| 20260901190021 | 96 | 257 | 4.0 | 8.0 | 0.00 | 0.00 | 0.00 | 53 | 1014.1 |
| 20260901184523 | 95 | 182 | 5.0 | 9.0 | 0.00 | 0.00 | 0.00 | 56 | 1014.1 |
| 20260901183016 | 94 | 205 | 3.0 | 10.0 | 0.00 | 0.00 | 0.00 | 55 | 1014.2 |
| 20260901181516 | 94 | 176 | 6.0 | 10.0 | 0.00 | 0.00 | 0.00 | 56 | 1014.3 |
| 20260901180014 | 94 | 195 | 6.0 | 11.0 | 0.00 | 0.00 | 0.00 | 57 | 1014.4 |
| 20260901174514 | 93 | 214 | 6.0 | 10.0 | 0.00 | 0.00 | 0.00 | 60 | 1014.6 |
| 20260901173012 | 94 | 208 | 4.0 | 8.0 | 0.00 | 0.00 | 0.00 | 58 | 1014.6 |
| 20260901171513 | 93 | 201 | 4.0 | 7.0 | 0.00 | 0.00 | 0.00 | 59 | 1014.7 |
| 20260901170011 | 91 | 205 | 4.0 | 8.0 | 0.00 | 0.00 | 0.00 | 61 | 1014.8 |
| 20260901164509 | 91 | 217 | 4.0 | 8.0 | 0.00 | 0.00 | 0.00 | 60 | 1015.0 |
| 20260901163012 | 91 | 214 | 3.0 | 9.0 | 0.00 | 0.00 | 0.00 | 60 | 1015.1 |
| 20260901161506 | 91 | 278 | 2.0 | 7.0 | 0.00 | 0.00 | 0.00 | 60 | 1015.0 |
| 20260901160106 | 89 | 236 | 2.0 | 7.0 | 0.00 | 0.00 | 0.00 | 63 | 1015.1 |
| 20260901154502 | 88 | 234 | 1.0 | 8.0 | 0.00 | 0.00 | 0.00 | 64 | 1015.0 |
| 20260901153101 | 87 | 219 | 5.0 | 10.0 | 0.00 | 0.00 | 0.00 | 65 | 1015.1 |
| 20260901151557 | 87 | 212 | 3.0 | 8.0 | 0.00 | 0.00 | 0.00 | 66 | 1015.0 |
| 20260901150056 | 85 | 193 | 3.0 | 9.0 | 0.00 | 0.00 | 0.00 | 68 | 1014.9 |
| 20260901144552 | 84 | 199 | 3.0 | 7.0 | 0.00 | 0.00 | 0.00 | 68 | 1015.0 |
| 20260901143049 | 83 | 210 | 3.0 | 7.0 | 0.00 | 0.00 | 0.00 | 70 | 1015.0 |
| 20260901141547 | 82 | 217 | 4.0 | 9.0 | 0.00 | 0.00 | 0.00 | 72 | 1014.9 |
| 20260901140043 | 81 | 243 | 5.0 | 10.0 | 0.00 | 0.00 | 0.00 | 74 | 1014.9 |
| 20260901134552 | 80 | 224 | 4.0 | 11.0 | 0.00 | 0.00 | 0.00 | 76 | 1014.9 |
| 20260901133042 | 80 | 205 | 4.0 | 11.0 | 0.00 | 0.00 | 0.00 | 77 | 1014.9 |
| 20260901131542 | 79 | 214 | 4.0 | 8.0 | 0.00 | 0.00 | 0.00 | 77 | 1015.1 |
| 20260901130039 | 78 | 221 | 5.0 | 12.0 | 0.00 | 0.00 | 0.00 | 78 | 1014.8 |
| 20260901124544 | 77 | 238 | 4.0 | 9.0 | 0.00 | 0.00 | 0.00 | 80 | 1014.8 |
| 20260901123041 | 77 | 215 | 5.0 | 11.0 | 0.00 | 0.00 | 0.00 | 80 | 1014.8 |
| 20260901121541 | 76 | 212 | 3.0 | 8.0 | 0.00 | 0.00 | 0.00 | 81 | 1014.9 |
| 20260901120035 | 76 | 225 | 4.0 | 11.0 | 0.00 | 0.00 | 0.00 | 82 | 1014.8 |
| 20260901114550 | 75 | 206 | 5.0 | 8.0 | 0.00 | 0.00 | 0.00 | 82 | 1014.6 |
| 20260901113032 | 76 | 201 | 4.0 | 8.0 | 0.00 | 0.00 | 0.00 | 82 | 1014.4 |
| 20260901111530 | 76 | 207 | 4.0 | 7.0 | 0.00 | 0.00 | 0.00 | 82 | 1014.3 |
| 20260901110028 | 76 | 207 | 4.0 | 10.0 | 0.00 | 0.00 | 0.00 | 81 | 1014.3 |
| 20260901104527 | 76 | 219 | 5.0 | 10.0 | 0.00 | 0.00 | 0.00 | 81 | 1014.3 |
| 20260901103028 | 76 | 198 | 5.0 | 10.0 | 0.00 | 0.00 | 0.00 | 81 | 1014.3 |
| 20260901101526 | 76 | 221 | 5.0 | 9.0 | 0.00 | 0.00 | 0.00 | 80 | 1014.4 |
| 20260901100025 | 76 | 209 | 5.0 | 9.0 | 0.00 | 0.00 | 0.00 | 80 | 1014.3 |
| 20260901093024 | 76 | 213 | 3.0 | 8.0 | 0.00 | 0.00 | 0.00 | 81 | 1014.1 |
| 20260901091524 | 76 | 213 | 3.0 | 8.0 | 0.00 | 0.00 | 0.00 | 80 | 1014.2 |
| 20260901090021 | 76 | 223 | 4.0 | 8.0 | 0.00 | 0.00 | 0.00 | 80 | 1014.3 |
| 20260901084518 | 77 | 206 | 5.0 | 8.0 | 0.00 | 0.00 | 0.00 | 79 | 1014.2 |
| 20260901083017 | 77 | 209 | 6.0 | 9.0 | 0.00 | 0.00 | 0.00 | 78 | 1014.2 |
| 20260901081526 | 77 | 210 | 5.0 | 11.0 | 0.00 | 0.00 | 0.00 | 78 | 1014.0 |
| 20260901080014 | 78 | 213 | 6.0 | 9.0 | 0.00 | 0.00 | 0.00 | 77 | 1014.0 |
| 20260901074513 | 78 | 202 | 5.0 | 10.0 | 0.00 | 0.00 | 0.00 | 76 | 1014.0 |
| 20260901073016 | 78 | 198 | 5.0 | 9.0 | 0.00 | 0.00 | 0.00 | 75 | 1014.0 |
| 20260901071511 | 78 | 223 | 6.0 | 10.0 | 0.00 | 0.00 | 0.00 | 75 | 1014.0 |
| 20260901070009 | 78 | 217 | 6.0 | 10.0 | 0.00 | 0.00 | 0.00 | 74 | 1014.1 |
| 20260901064510 | 78 | 213 | 6.0 | 11.0 | 0.00 | 0.00 | 0.00 | 73 | 1014.1 |
| 20260901063004 | 78 | 197 | 5.0 | 11.0 | 0.00 | 0.00 | 0.00 | 73 | 1014.1 |
| 20260901061503 | 78 | 215 | 6.0 | 10.0 | 0.00 | 0.00 | 0.00 | 73 | 1014.1 |
| 20260901060002 | 79 | 191 | 6.0 | 9.0 | 0.00 | 0.00 | 0.00 | 72 | 1014.1 |
| 20260901054601 | 79 | 212 | 5.0 | 7.0 | 0.00 | 0.00 | 0.00 | 72 | 1014.1 |
| 20260901053100 | 79 | 194 | 5.0 | 9.0 | 0.00 | 0.00 | 0.00 | 72 | 1014.2 |
| 20260901051600 | 79 | 213 | 4.0 | 8.0 | 0.00 | 0.00 | 0.00 | 72 | 1014.1 |
| 20260901050055 | 80 | 190 | 5.0 | 9.0 | 0.00 | 0.00 | 0.00 | 71 | 1014.1 |
| 20260901044557 | 81 | 212 | 6.0 | 8.0 | 0.00 | 0.00 | 0.00 | 69 | 1014.1 |
| 20260901043056 | 81 | 215 | 5.0 | 13.0 | 0.00 | 0.00 | 0.00 | 70 | 1014.2 |
| 20260901041553 | 81 | 202 | 5.0 | 9.0 | 0.00 | 0.00 | 0.00 | 71 | 1014.1 |
| 20260901040153 | 81 | 217 | 4.0 | 9.0 | 0.00 | 0.00 | 0.00 | 71 | 1014.0 |
| 20260901034552 | 81 | 213 | 4.0 | 7.0 | 0.00 | 0.00 | 0.00 | 71 | 1014.0 |
| 20260901031552 | 81 | 219 | 5.0 | 10.0 | 0.00 | 0.00 | 0.00 | 71 | 1014.1 |
| 20260901030051 | 82 | 211 | 6.0 | 9.0 | 0.00 | 0.00 | 0.00 | 71 | 1014.0 |
| 20260901024551 | 82 | 212 | 5.0 | 9.0 | 0.00 | 0.00 | 0.00 | 70 | 1014.0 |
| 20260901023049 | 82 | 204 | 3.0 | 7.0 | 0.00 | 0.00 | 0.00 | 70 | 1013.9 |
| 20260901021549 | 83 | 180 | 4.0 | 7.0 | 0.00 | 0.00 | 0.00 | 71 | 1013.8 |
| 20260901020049 | 83 | 198 | 3.0 | 8.0 | 0.00 | 0.00 | 0.00 | 71 | 1013.8 |
| 20260901014548 | 83 | 184 | 3.0 | 6.0 | 0.00 | 0.00 | 0.00 | 71 | 1013.7 |
| 20260901013106 | 83 | 188 | 3.0 | 6.0 | 0.00 | 0.00 | 0.00 | 72 | 1013.6 |
| 20260901011547 | 83 | 179 | 4.0 | 7.0 | 0.00 | 0.00 | 0.00 | 71 | 1013.4 |
| 20260901010047 | 84 | 182 | 4.0 | 7.0 | 0.00 | 0.00 | 0.00 | 70 | 1013.1 |